Home   Weather   Rome   Past weeks

Flag for Italy Past Weather in Rome, Italy — Yesterday and Last 2 Weeks

Now
45 °F

Passing clouds.


Feels Like: 43 °F
Forecast: 36 / 57 °F
Wind: 3 mph from North

Location: Rome / Ciampino

Current Time: Dec 6, 2016 at 10:55:57 pm

Latest Report: Dec 6, 2016 at 10:20 pm


Visibility: N/A

Pressure: 30.33 "Hg

Humidity: 81%

Dew Point: 39 °F

Location of RomeLocation

Past Weather in Rome — Graph

°F

Rome Temperature Yesterday

Maximum temperature yesterday: 63 °F (at 12:20 pm)
Minimum temperature yesterday: 45 °F (at 4:20 am)
Average temperature yesterday: 52 °F

High & Low Weather Summary for the Past Weeks

 TemperatureHumidityPressure
High70 °F (Nov 22, 11:50 am)100% (Nov 25, 9:20 am)30.42 "Hg (Nov 25, 9:20 am)
Low34 °F (Nov 30, 2:20 am)34% (Dec 5, 12:20 pm)29.80 "Hg (Nov 28, 1:20 am)
Average52 °F75%30.10 "Hg
* Reported Nov 21 9:20 pm — Dec 6 9:50 pm, Rome, Weather by CustomWeather, © 2016

Note: Actual official high and low records may vary slightly from our data, if they occured in-between our weather recording intervals... More about our weather records

Advertising

Rome Weather History for the Previous 24 Hours

Scroll right to see more
 ConditionsComfort  
Time TempWeatherWind HumidityBarometerVisibility
9:50 pm
Tue, Dec 6
46 °FPassing clouds.3 mph76%30.33 "HgN/A
9:20 pm50 °FClear.6 mph67%30.33 "Hg10 mi
8:50 pm50 °FClear.6 mph71%30.33 "Hg10 mi
8:20 pm50 °FClear.7 mph67%30.33 "Hg10 mi
7:50 pm50 °FClear.5 mph71%30.33 "Hg10 mi
6:50 pm50 °FClear.6 mph76%30.33 "Hg10 mi
6:20 pm50 °FPassing clouds.5 mph76%30.30 "HgN/A
5:50 pm50 °FPassing clouds.2 mph82%30.30 "Hg6 mi
5:20 pm50 °FPassing clouds.5 mph82%30.30 "Hg6 mi
4:50 pm50 °FPassing clouds.3 mph88%30.30 "HgN/A
4:20 pm52 °FPassing clouds.2 mph82%30.30 "HgN/A
3:50 pm50 °FPassing clouds.3 mph88%30.30 "HgN/A
3:20 pm52 °FClear.2 mph88%30.27 "HgN/A
2:50 pm50 °FLight rain. Clear.2 mph94%30.27 "Hg5 mi
2:20 pm52 °FLight rain. Clear.3 mph88%30.27 "Hg5 mi
1:50 pm50 °FLight rain. Clear.2 mph94%30.27 "Hg5 mi
1:20 pm50 °FLight rain. Clear.3 mph88%30.27 "Hg5 mi
12:50 pm48 °FRain. Passing clouds.3 mph82%30.30 "Hg6 mi
12:20 pm48 °FRain. Passing clouds.9 mph82%30.30 "Hg6 mi
11:50 am54 °FLight rain. Passing clouds.3 mph67%30.30 "Hg6 mi
11:20 am54 °FLight rain. Passing clouds.3 mph58%30.30 "Hg6 mi
10:50 am50 °FScattered clouds.5 mph71%30.30 "Hg6 mi
10:20 am50 °FScattered clouds.2 mph71%30.30 "Hg6 mi
9:50 am48 °FScattered clouds.5 mph71%30.30 "Hg6 mi
9:20 am54 °FScattered clouds.6 mph58%30.30 "Hg6 mi
8:50 am54 °FScattered clouds.7 mph54%30.27 "HgN/A
8:20 am48 °FScattered clouds.5 mph71%30.27 "HgN/A
7:50 am46 °FScattered clouds.6 mph71%30.27 "HgN/A
7:20 am46 °FClear.3 mph71%30.27 "Hg10 mi
6:50 am48 °FClear.2 mph66%30.27 "Hg10 mi
6:20 am46 °FClear.3 mph71%30.27 "Hg10 mi
5:50 am46 °FClear.6 mph71%30.27 "Hg10 mi
5:20 am48 °FClear.3 mph66%30.27 "Hg10 mi
4:50 am50 °FClear.6 mph58%30.27 "Hg10 mi
4:20 am50 °FClear.7 mph58%30.27 "Hg10 mi
3:50 am50 °FClear.7 mph58%30.27 "Hg10 mi
3:20 am50 °FClear.8 mph58%30.30 "Hg10 mi
2:50 am50 °FClear.7 mph58%30.30 "Hg10 mi
2:20 am50 °FClear.9 mph58%30.30 "Hg10 mi
1:50 am50 °FClear.9 mph54%30.30 "Hg10 mi
1:20 am52 °FClear.9 mph50%30.30 "Hg10 mi
12:50 am50 °FClear.8 mph54%30.30 "Hg10 mi
12:20 am50 °FClear.8 mph54%30.30 "Hg10 mi
11:50 pm
Mon, Dec 5
48 °FClear.6 mph62%30.30 "Hg10 mi
10:50 pm46 °FClear.3 mph71%30.33 "Hg10 mi
10:20 pm48 °FPassing clouds.5 mph66%30.33 "HgN/A
Weather by CustomWeather, © 2016

See weather overviewHow to use our weather pages